Regional Weather Roundup
Issued by NWS Midland/Odessa, TX

Home | Current Version | Previous Version | Text Only | Print | Product List | Glossary On
Versions: 1 2 3 4 5 6 7 8 9 10 11 12 13 14 15 16 17 18 19 20 21 22 23 24 25 26 27 28 29 30 31 32 33 34 35 36 37 38 39 40 41 42 43 44 45 46 47 48 49 50
000
ASUS44 KMAF 191510
RWRMAF
MIDLAND AREA WEATHER ROUNDUP
NATIONAL WEATHER SERVICE MIDLAND TX
900 AM CST FRI JAN 19 2018

...IN SOUTHWEST TEXAS AND SOUTHEAST NEW MEXICO...

CITY           SKY/WX    TMP DP  RH WIND       PRES   REMARKS
ALPINE         CLOUDY    46  21  37 SE3       30.21R
ANDREWS        FAIR      31  18  59 SW7       30.07S WCI  24
ARTESIA        MOSUNNY   30  16  55 S5        30.06S WCI  25
BIG SPRING     CLOUDY    30  20  66 S10       30.13S WCI  21
CARLSBAD       MOSUNNY   30  18  60 SE5       30.06S WCI  25
DRYDEN           N/A    N/A N/A N/A SW3       30.16R
FORT STOCKTON  SUNNY     47  22  37 SW16      30.10S
GUAD PASS      MOSUNNY   35  14  42 SW22      30.12S WCI  23
HOBBS          SUNNY     30  14  51 SW10      30.05S WCI  21
LAMESA         CLOUDY    28  18  64 SW12      30.08S WCI  18
MARFA          CLOUDY    30  21  69 MISG        N/A
MIDLAND AIRPK    N/A     33  20  59 S5        30.10S WCI  29
MIDLAND INTL   CLOUDY    32  19  58 S7        30.09S WCI  26
ODESSA         CLOUDY    32  19  58 SW8       30.09S WCI  25
PECOS          MOSUNNY   24  11  60 CALM      30.12S
PRESIDIO       FAIR      37  19  48 CALM      30.22R
SEMINOLE       CLOUDY    26  17  66 SW6       30.07S WCI  20
SNYDER         CLOUDY    24  17  74 SW7       30.10F WCI  16
WINK           CLOUDY    24  15  68 CALM      30.09F
$$
...OTHER STATIONS IN TEXAS...

CITY           SKY/WX    TMP DP  RH WIND       PRES   REMARKS
ABILENE        CLOUDY    34  26  72 S13       30.13S WCI  25
AMARILLO       CLOUDY    35  13  40 SW10      29.93F WCI  27
AUSTIN         CLOUDY    42  29  59 CALM      30.27S
BROWNSVILLE    CLOUDY    43  42  97 NW13      30.25S WCI  36
CORPUS CHRISTI DRIZZLE   42  41  96 N12       30.23F FOG     WCI  36
DALLAS FTW     PTSUNNY   45  27  49 S14       30.20F WCI  38
DEL RIO        CLOUDY    34  30  85 CALM      30.24F
EL PASO        MOCLDY    28  15  58 CALM      30.17R
HOUSTON INT    CLOUDY    42  31  64 E8        30.30F WCI  37
LUBBOCK        CLOUDY    30  16  56 SW8       30.01S WCI  22
SAN ANGELO     CLOUDY    36  27  69 SW7       30.16R WCI  30
SAN ANTONIO    DRIZZLE   42  39  89 NW3       30.26S
WACO           CLOUDY    41  27  57 S13       30.25F WCI  34
WICHITA FALLS  CLOUDY    31  18  58 S16       29.93S WCI  20
$$
...OTHER LOCATIONS IN NEW MEXICO...

CITY           SKY/WX    TMP DP  RH WIND       PRES   REMARKS
ALAMOGORDO     PTCLDY    27   9  46 CALM      30.17S
ALBUQUERQUE    MOCLDY    28  10  46 S3        30.16R
CANNON AFB     MOSUNNY   34  12  40 W12       29.99S WCI  25
CLOVIS         MOSUNNY   37  12  35 W15       29.98S WCI  28
HOLLOMAN AFB   MOCLDY    24   9  53 CALM      30.19F
ROSWELL        PTSUNNY   26  11  52 CALM      30.03S
RUIDOSO        PTCLDY    34   7  32 CALM      30.13R
SANTA FE       MOCLDY    25   9  50 NE8       30.12R WCI  16
TRUTH OR CONSE MOCLDY    30   9  41 SW3       30.16R
TUCUMCARI      MOCLDY    30  14  51 W8        29.92S WCI  22
$$



USA.gov is the U.S. government's official web portal to all federal, state and local government web resources and services.